New York, NY

9:54 PM EDT on July 22, 2017 (GMT -0400)
La Guardia

Weather History for KLGA - March, 2013

Change the Weather History Date:

Saturday, March 9, 2013

  Actual Average Record
Temperature  
Mean Temperature 46 °F 40 °F  
Max Temperature 54 °F 47 °F 75 °F (2000)
Min Temperature 37 °F 33 °F 14 °F (1996)
Degree Days  
Heating Degree Days 19 25  
Month to date heating degree days 237 234  
Since 1 July heating degree days 3432 3663  
Cooling Degree Days 0 0  
Month to date cooling degree days 0 0  
Year to date cooling degree days 0 0  
Moisture  
Dew Point 21 °F    
Average Humidity 43    
Maximum Humidity 62    
Minimum Humidity 24    
Precipitation  
Precipitation 0.00 in 0.12 in 2.18 in (1998)
Month to date precipitation 0.38 1.07  
Year to date precipitation 6.22 7.00  
Snow  
Snow 0.00 in 0.20 in 7.80 in (1984)
Month to date snowfall 3.2 1.9  
Since 1 July snowfall 19.3 23.9  
Snow Depth 1.00 in    
Sea Level Pressure  
Sea Level Pressure 30.24 in    
Wind  
Wind Speed 12 mph (North)    
Max Wind Speed 24 mph    
Max Gust Speed 30 mph    
Visibility 10 miles    
Events      
T = Trace of Precipitation, MM = Missing Value Source: NWS Daily Summary

Daily Weather History Graph

Daily Weather History Graph

Search for Another Location

Airport or City:

Trip Planner

Search our weather history database for the weather conditions in past years. The results will help you decide how hot, cold, wet, or windy it might be!

Date:

Astronomy

Mar. 09, 2013 Rise Set
Actual Time 6:16 AM EST 5:55 PM EST
Civil Twilight 5:49 AM EST 6:23 PM EST
Nautical Twilight 5:17 AM EST 6:55 PM EST
Astronomical Twilight 4:45 AM EST 7:27 PM EST
Moon 4:39 AM EST (3/9) 3:54 PM EST (3/9)
Length of Visible Light 12h 34m
Length of Day
11h 39m
Waning Crescent, 5% of the Moon is Illuminated
Mar 9
Waning Crescent
Mar 11
New
Mar 19
First Quarter
Mar 27
Full
Apr 3
Last Quarter

Hourly Weather History & Observations

Time (EST) Temp. Windchill Dew Point Humidity Pressure Visibility Wind Dir Wind Speed Gust Speed Precip Events Conditions
12:51 AM 39.0 °F 29.6 °F 24.1 °F 55% 30.18 in 10.0 mi North 18.4 mph 29.9 mph N/A   Partly Cloudy
1:51 AM 39.0 °F 31.0 °F 24.1 °F 55% 30.18 in 10.0 mi North 13.8 mph 26.5 mph N/A   Clear
2:51 AM 37.9 °F 27.9 °F 23.0 °F 55% 30.17 in 10.0 mi North 19.6 mph 26.5 mph N/A   Clear
3:51 AM 37.4 °F 26.9 °F 21.2 °F 52% 30.17 in 10.0 mi North 20.7 mph 27.6 mph N/A   Clear
4:51 AM 37.0 °F 27.0 °F 21.9 °F 54% 30.20 in 10.0 mi North 18.4 mph 25.3 mph N/A   Clear
5:51 AM 37.0 °F 27.0 °F 21.9 °F 54% 30.22 in 10.0 mi North 18.4 mph 27.6 mph N/A   Clear
6:51 AM 37.0 °F 29.3 °F 21.9 °F 54% 30.24 in 10.0 mi North 11.5 mph 19.6 mph N/A   Partly Cloudy
7:51 AM 39.0 °F 31.4 °F 21.9 °F 50% 30.25 in 10.0 mi North 12.7 mph 20.7 mph N/A   Partly Cloudy
8:51 AM 39.9 °F 31.4 °F 23.0 °F 51% 30.25 in 10.0 mi North 16.1 mph - N/A   Partly Cloudy
9:51 AM 42.8 °F 35.8 °F 21.2 °F 42% 30.26 in 10.0 mi North 13.8 mph 21.9 mph N/A   Partly Cloudy
10:51 AM 45.0 °F 38.9 °F 21.9 °F 40% 30.26 in 10.0 mi North 12.7 mph 21.9 mph N/A   Clear
11:51 AM 46.9 °F - 21.9 °F 37% 30.26 in 10.0 mi North 12.7 mph - N/A   Clear
12:51 PM 48.9 °F - 19.9 °F 32% 30.25 in 10.0 mi North 13.8 mph - N/A   Partly Cloudy
1:51 PM 51.1 °F - 19.0 °F 28% 30.22 in 10.0 mi NNE 13.8 mph 18.4 mph N/A   Partly Cloudy
2:51 PM 53.1 °F - 19.0 °F 26% 30.22 in 10.0 mi NNW 5.8 mph - N/A   Scattered Clouds
3:51 PM 54.0 °F - 18.0 °F 24% 30.23 in 10.0 mi North 9.2 mph - N/A   Scattered Clouds
4:51 PM 53.1 °F - 18.0 °F 25% 30.23 in 10.0 mi North 6.9 mph - N/A   Scattered Clouds
5:51 PM 51.1 °F - 18.0 °F 27% 30.25 in 10.0 mi North 8.1 mph - N/A   Partly Cloudy
6:51 PM 50.0 °F - 17.1 °F 27% 30.27 in 10.0 mi NNW 4.6 mph - N/A   Partly Cloudy
7:51 PM 48.0 °F - 17.1 °F 29% 30.28 in 10.0 mi NNE 6.9 mph - N/A   Partly Cloudy
8:51 PM 46.9 °F - 18.0 °F 32% 30.30 in 10.0 mi NNE 5.8 mph - N/A   Partly Cloudy
9:51 PM 45.0 °F 40.6 °F 19.0 °F 36% 30.30 in 10.0 mi SE 8.1 mph - N/A   Partly Cloudy
10:51 PM 42.1 °F 38.4 °F 30.9 °F 65% 30.31 in 10.0 mi SE 5.8 mph - N/A   Partly Cloudy
11:51 PM 39.9 °F 35.1 °F 32.0 °F 73% 30.32 in 10.0 mi SSE 6.9 mph - N/A   Partly Cloudy